User: anonymous   Login
Location: Helsinki
(60.1699°N, 24.9384°E)
Time: 10:52:59
(UTC+02:00)
Language:

AO-91 - Orbit

View from above orbital plane
View from above orbital plane
View from above satellite
View from above satellite

Ground track
Ground track

The orbit data is extracted from the following two-line orbital elements,

1 43017U 17073E   22333.65772270  .00004964  00000-0  36716-3 0  9991
2 43017  97.6532 221.0219 0244639   6.6361 353.7993 14.82716685271586
Epoch (UTC): 29 November 2022 15:47:07
Eccentricity: 0.0244639
inclination: 97.6532°
perigee height: 449 km
apogee height: 792 km
right ascension of ascending node: 221.0219°
argument of perigee: 6.6361°
revolutions per day: 14.82716685
mean anomaly at epoch: 353.7993°
orbit number at epoch: 27158

The dashed part of the orbit path shows where the satellite is in the earth's shadow,  

DLR